This is the latest recevied weather packets stored in our database for station/object LZ1PDB-12. If no packets are shown the sender has not sent any weather packets the latest 10 day(s).
| Time | Temp. | Humidity | Pressure | Rain* | Wind** | Luminosity | Snow |
|---|---|---|---|---|---|---|---|
| 1777912358 | 17.22° C | 40% | 1021.7 hPa | - | - | - | - |
| 1777911458 | 17.22° C | 40% | 1021.7 hPa | - | - | - | - |
| 1777909657 | 17.78° C | 39% | 1021.8 hPa | - | - | - | - |
| 1777908757 | 17.78° C | 39% | 1021.9 hPa | - | - | - | - |
| 1777907857 | 17.78° C | 39% | 1021.9 hPa | - | - | - | - |
| 1777906956 | 17.78° C | 39% | 1022 hPa | - | - | - | - |
| 1777905156 | 16.67° C | 40% | 1021.9 hPa | - | - | - | - |
| 1777904256 | 17.22° C | 41% | 1022 hPa | - | - | - | - |
| 1777903356 | 17.22° C | 40% | 1022.1 hPa | - | - | - | - |
| 1777901551 | 17.22° C | 40% | 1021.9 hPa | - | - | - | - |
| 1777900651 | 16.11° C | 41% | 1022 hPa | - | - | - | - |
| 1777897945 | 16.11° C | 40% | 1022.3 hPa | - | - | - | - |
| 1777897045 | 15.56° C | 42% | 1022.4 hPa | - | - | - | - |
| 1777896145 | 15.56° C | 43% | 1022.6 hPa | - | - | - | - |
| 1777895244 | 15.56° C | 42% | 1022.6 hPa | - | - | - | - |
| 1777894344 | 15° C | 43% | 1022.7 hPa | - | - | - | - |
| 1777893444 | 15.56° C | 43% | 1022.9 hPa | - | - | - | - |
| 1777892544 | 15° C | 42% | 1022.8 hPa | - | - | - | - |
| 1777891644 | 14.44° C | 42% | 1022.9 hPa | - | - | - | - |
| 1777890744 | 14.44° C | 42% | 1022.9 hPa | - | - | - | - |
| 1777889843 | 14.44° C | 42% | 1022.9 hPa | - | - | - | - |
| 1777887142 | 13.33° C | 43% | 1023.1 hPa | - | - | - | - |
| 1777886242 | 13.33° C | 42% | 1023.2 hPa | - | - | - | - |
| 1777885342 | 12.78° C | 43% | 1023.4 hPa | - | - | - | - |
| 1777884441 | 12.22° C | 43% | 1023.5 hPa | - | - | - | - |
* Rain since midnight (hover to see other rain measurements)
** Current wind speed in m/s (hover to see current wind gust speed)